Starlink 30441

operational
NORAD ID: 57869 Int'l Des: 2023-144 Owner: SPXS Country: US Constellation: starlink
LEOCIRCULAR

Über Starlink 30441

Beschreibung wird geladen...

Live-Position

3D-Globus wird geladen...

Nächste Überflüge

Höhenverlauf

Altitude vs Time

uPlot chart will show altitude changes over time

Zweizeiliger Elementsatz

1 57869U 23144F 25353.37443960 -.00000414 00000-0 -15549-4 0 9992
2 57869 43.0044 4.3103 0001418 289.3960 70.6729 15.02547005125484
Epoch: 19. Dez. 2025 • Age: 20 hours

Aktueller Status

Höhe 567.9 km
Geschwindigkeit 7.58 km/s
Subsatellitenpunkt -34.48°S, 141.32°E
Startdatum 16. Sept. 2023
Alter 2.2 years
Typ internet

Technische Details

Klassifizierung Payload
Masse 730.00 kg
Trockenmasse 700.00 kg
Gesamtmasse 730.00 kg
Länge 0.30 m
Durchmesser 4.10 m
Spannweite 29.00 m
Form Box + pan
Hersteller SPXS
Bus-Typ Starlink V2M
Phasenstatus In Orbit
Besitzer/Staat SPXS/US

Große Konstellationen

Loading constellations...